[[{"header":{"parameterUnit":"m.s-1","parameterCategory":1,"la1":30.2992,"la2":30.254,"lo1":-89.0895,"lo2":-89.0443,"dy":0.0025,"dx":0.0025,"nx":19,"ny":19,"refTime":"2026-04-28T03:00:00:Z","depth":0,"parameterNumber":2,"parameterNumberName":"U-component_of_WINDS"},"data":[0,0,0,2.1253,2.1259,2.1543,2.1544,2.1892,2.1895,0,0,0,0,0,0,0,0,0,0,0,2.116,2.1162,2.1253,2.126,2.1543,2.1544,2.1892,2.1895,0,0,0,0,0,0,0,0,0,0,0,2.1159,2.1162,2.1164,2.1261,2.1542,2.1544,2.1891,2.1682,0,0,0,0,0,0,0,0,0,0,2.141,2.1314,2.1161,2.1164,2.1262,2.1542,2.1544,2.1673,2.1696,2.1758,0,2.181,0,2.1858,2.1918,2.1919,0,0,0,2.1267,2.1295,2.138,2.1165,2.1265,2.1542,2.1417,2.1686,2.1711,2.1788,2.1815,2.1828,2.1864,2.192,2.1921,2.2255,2.2256,0,0,2.1251,2.1206,2.1362,2.1396,2.1351,2.1408,2.1426,2.1701,2.1728,2.1816,2.1837,2.1869,2.1922,2.1925,2.2254,2.2255,0,0,0,2.1202,2.1195,2.1273,2.1382,2.1433,2.1416,2.1436,2.1716,2.1745,2.1841,2.1874,2.1924,2.1928,2.2253,2.2255,2.2271,0,0,0,2.1192,2.1166,2.1266,2.1241,2.1428,2.1578,2.1444,2.1726,2.1759,2.1872,2.1924,2.1931,2.2252,2.2254,2.2268,2.2287,0,0,0,2.1145,2.1161,2.1198,2.1238,2.1358,2.1575,2.162,2.1734,2.1779,2.1919,2.1932,2.2251,2.2253,2.2265,2.2282,2.2362,0,0,0,2.1081,2.1209,2.1198,2.1353,2.1356,2.1582,2.1619,2.179,2.1912,2.1926,2.2252,2.2254,2.2264,2.2279,2.2358,2.2421,2.2443,0,0,2.1217,2.1223,2.1318,2.1317,2.1534,2.1543,2.1764,2.1918,2.1973,2.2158,2.2167,2.2269,2.2282,2.2361,2.258,2.2596,0,0,0,2.1346,2.1414,2.1481,2.1596,2.1717,2.1823,2.1949,2.2007,2.2166,2.2059,2.2321,2.233,2.2378,2.241,2.2425,2.247,2.2267,2.2267,2.2267,2.1473,2.1536,2.1699,2.1797,2.1907,2.2037,2.2133,2.2233,2.2264,2.2325,2.238,2.2505,2.2541,2.2552,2.2598,2.2418,2.2418,2.2419,2.2419,2.1678,2.1784,2.1824,2.1995,2.2062,2.2207,2.2338,2.2355,2.2501,2.2468,2.2514,2.2473,2.2568,2.2612,2.2421,2.242,2.242,2.242,2.242,2.1768,2.183,2.1898,2.2071,2.2198,2.2293,2.2431,2.2487,2.2541,2.2587,2.2652,2.2652,2.2659,2.2614,2.2614,2.2615,2.2615,2.2615,2.2616,2.1834,2.1911,2.202,2.2161,2.2242,2.2357,2.2489,2.2572,2.2677,2.2708,2.2708,2.2734,2.2566,2.2522,2.2623,2.2621,2.2621,2.262,2.2619,2.2018,2.1986,2.2154,2.2236,2.2407,2.253,2.26,2.2763,2.284,2.2906,2.2924,2.2789,2.28,2.2789,2.2754,2.2908,2.2908,2.2908,2.2908,2.2094,2.2105,2.2292,2.2419,2.2551,2.2632,2.2822,2.2927,2.303,2.3082,2.3068,2.3025,2.3012,2.3031,2.3015,2.2983,2.3192,2.3192,2.3193,2.2212,2.2238,2.2389,2.2489,2.2628,2.2746,2.2927,2.3073,2.3183,2.3205,2.3124,2.3112,2.3044,2.3019,2.3038,2.3012,2.2954,0,0]},{"header":{"parameterUnit":"m.s-1","parameterCategory":1,"la1":30.2992,"la2":30.254,"lo1":-89.0895,"lo2":-89.0443,"dy":0.0025,"dx":0.0025,"nx":19,"ny":19,"refTime":"2026-04-28T03:00:00:Z","depth":0,"parameterNumber":3,"parameterNumberName":"V-component_of_WINDS"},"data":[0,0,0,4.7267,4.727,4.7432,4.7432,4.7633,4.7634,0,0,0,0,0,0,0,0,0,0,0,4.7218,4.7219,4.7266,4.727,4.7432,4.7433,4.7632,4.7634,0,0,0,0,0,0,0,0,0,0,0,4.7217,4.7219,4.7221,4.7271,4.7432,4.7433,4.7632,4.7511,0,0,0,0,0,0,0,0,0,0,4.7355,4.731,4.7218,4.7221,4.7272,4.7432,4.7433,4.7506,4.7519,4.7558,0,4.7595,0,4.7618,4.7648,4.7648,0,0,0,4.727,4.7299,4.7344,4.7221,4.7273,4.7431,4.7359,4.7513,4.7528,4.7575,4.7598,4.7605,4.7622,4.7649,4.765,4.7886,4.7887,0,0,4.7261,4.7245,4.7334,4.7354,4.7332,4.7354,4.7364,4.7522,4.7544,4.7599,4.761,4.7625,4.765,4.7652,4.7885,4.7886,0,0,0,4.7236,4.7239,4.728,4.7346,4.7375,4.7358,4.737,4.7537,4.7552,4.7612,4.7627,4.7651,4.7654,4.7884,4.7886,4.793,0,0,0,4.723,4.7225,4.7276,4.7268,4.7373,4.7459,4.7381,4.7541,4.756,4.7626,4.7652,4.7656,4.7883,4.7885,4.7926,4.7953,0,0,0,4.7207,4.7222,4.7246,4.7267,4.7337,4.7457,4.7481,4.7546,4.7569,4.7649,4.7656,4.7882,4.7884,4.7923,4.7947,4.8013,0,0,0,4.7177,4.7279,4.7246,4.7364,4.7336,4.7484,4.748,4.759,4.7664,4.7653,4.7883,4.7885,4.7922,4.7944,4.801,4.8068,4.809,0,0,4.7296,4.7292,4.7364,4.7339,4.7491,4.746,4.7617,4.7696,4.7715,4.7827,4.7833,4.7927,4.7947,4.8013,4.8218,4.8236,0,0,0,4.7396,4.7447,4.7491,4.7563,4.7629,4.7688,4.7746,4.7775,4.7873,4.7771,4.7968,4.798,4.8019,4.8048,4.8063,4.8098,4.7897,4.7897,4.7897,4.7541,4.7565,4.7685,4.7729,4.7798,4.7859,4.7917,4.7967,4.7966,4.8013,4.8046,4.8169,4.8201,4.8213,4.8249,4.8077,4.8077,4.8078,4.8078,4.7719,4.7796,4.7798,4.7916,4.7939,4.8036,4.8099,4.8095,4.8188,4.8144,4.8179,4.8131,4.8232,4.8265,4.8081,4.8081,4.808,4.808,4.808,4.7818,4.786,4.7898,4.8007,4.8088,4.8127,4.8218,4.8234,4.8249,4.8284,4.8323,4.8323,4.8325,4.8302,4.8302,4.8303,4.8303,4.8303,4.8303,4.7907,4.7948,4.8026,4.8108,4.8158,4.8226,4.829,4.8338,4.8396,4.84,4.8401,4.8396,4.8238,4.8198,4.831,4.8309,4.8308,4.8308,4.8307,4.8081,4.8046,4.8165,4.8216,4.8315,4.8396,4.8416,4.8515,4.8557,4.8601,4.859,4.847,4.8465,4.8453,4.8421,4.8584,4.8584,4.8584,4.8584,4.8166,4.8167,4.8295,4.8376,4.8457,4.8489,4.8622,4.8673,4.8718,4.8746,4.8724,4.8682,4.8669,4.8673,4.8656,4.8627,4.8838,4.8838,4.8838,4.8276,4.8286,4.8398,4.8447,4.8527,4.8593,4.872,4.881,4.8854,4.8849,4.8768,4.8758,4.869,4.8667,4.866,4.8634,4.858,0,0]}]]